DW9615 Weather Reports


Display with metric or nautical units.
time (UTC)temp
F
wind
direction
speed
MPH
gust
MPH
rain 1hr
in
rain 24hr
in
rain mn
in
humidity
%
barometer
mb
20260505204524 64 170 0.0 0.0 0.00 0.00 0.00 4 1013.6
20260505203011 64 183 0.0 0.0 0.00 0.00 0.00 11 1013.4
20260505201508 64 179 0.0 0.0 0.00 0.00 0.00 16 1013.3
20260505200009 64 180 0.0 0.0 0.00 0.00 0.00 23 1013.2
20260505194508 65 229 0.0 0.0 0.00 0.00 0.00 23 1013.0
20260505193023 64 175 0.0 0.0 0.00 0.00 0.00 17 1013.0
20260505191505 64 170 0.0 0.0 0.00 0.00 0.00 15 1012.8
20260505190011 64 199 0.0 0.0 0.00 0.00 0.00 16 1012.7
20260505184503 64 217 0.0 0.0 0.00 0.00 0.00 24 1012.4
20260505183004 64 218 0.0 0.0 0.00 0.00 0.00 33 1012.3
20260505181601 65 217 0.0 0.0 0.00 0.00 0.00 39 1012.3
20260505180059 65 217 0.0 0.0 0.00 0.00 0.00 44 1012.2
20260505174558 66 217 0.0 0.0 0.00 0.00 0.00 46 1012.3
20260505173056 66 218 0.0 0.0 0.00 0.00 0.00 52 1012.3
20260505171554 66 175 0.0 0.0 0.00 0.00 0.00 59 1012.6
20260505170059 67 187 0.0 0.0 0.00 0.00 0.00 57 1012.7
20260505164549 67 187 0.0 0.0 0.00 0.00 0.00 51 1012.7
20260505163046 66 165 0.0 0.0 0.00 0.00 0.00 29 1012.8
20260505161543 65 175 0.0 0.0 0.00 0.00 0.00 17 1013.0
20260505153037 65 175 0.0 0.0 0.00 0.00 0.00 16 1013.5
20260505151535 65 175 0.0 0.0 0.00 0.00 0.00 18 1013.7
20260505124607 67 165 0.0 0.0 0.00 0.00 0.00 45 1014.6
20260505123110 67 165 0.0 0.0 0.00 0.00 0.00 50 1014.7
20260505121550 67 165 0.0 0.0 0.00 0.00 0.00 58 1014.7
20260505120051 68 165 0.0 0.0 0.00 0.00 0.00 64 1015.0
20260505114552 69 312 0.0 0.0 0.00 0.00 0.00 67 1014.9
20260505113039 69 312 0.0 0.0 0.00 0.00 0.00 69 1014.9
20260505111533 70 315 0.0 0.0 0.00 0.00 0.00 73 1014.9
20260505101519 73 353 0.0 0.0 0.00 0.00 0.00 77 1014.7
20260505100021 73 358 0.0 0.0 0.00 0.00 0.00 77 1014.4
20260505094516 73 35 0.0 0.0 0.00 0.00 0.00 77 1014.3
20260505093016 73 28 0.0 0.0 0.00 0.00 0.00 77 1014.0
20260505091518 73 304 0.0 0.0 0.00 0.00 0.00 77 1013.9
20260505090021 74 314 0.0 0.0 0.00 0.00 0.00 76 1013.7
20260505084517 74 49 0.0 0.0 0.00 0.00 0.00 76 1013.3
20260505083014 75 35 0.0 1.0 0.00 0.00 0.00 74 1013.2
20260505081513 75 27 0.0 0.0 0.00 0.00 0.00 73 1013.1
20260505080016 76 48 0.0 1.0 0.00 0.00 0.00 72 1012.9
20260505074512 77 65 0.0 1.0 0.00 0.00 0.00 69 1012.7
20260505073013 77 60 0.0 3.0 0.00 0.00 0.00 66 1012.7
20260505071503 78 49 0.0 4.0 0.00 0.00 0.00 63 1012.5
20260505070100 79 47 0.0 8.0 0.00 0.00 0.00 60 1012.4
20260505064555 80 38 0.0 9.0 0.00 0.00 0.00 58 1012.1
20260505063053 80 33 0.0 9.0 0.00 0.00 0.00 56 1012.1
20260505061545 81 104 1.0 8.0 0.00 0.00 0.00 54 1011.8
20260505060040 82 29 1.0 7.0 0.00 0.00 0.00 53 1011.7
20260505054537 82 76 3.0 8.0 0.00 0.00 0.00 53 1011.6
20260505053032 83 84 1.0 9.0 0.00 0.00 0.00 52 1011.5
20260505051527 83 143 1.0 7.0 0.00 0.00 0.00 52 1011.5
20260505041516 84 56 2.0 9.0 0.00 0.00 0.00 53 1011.8
20260505040005 84 66 1.0 9.0 0.00 0.00 0.00 52 1011.9
20260505034600 83 72 2.0 8.0 0.00 0.00 0.00 53 1012.2
20260505033057 83 68 1.0 10.0 0.00 0.00 0.00 52 1012.3
20260505031551 84 110 0.0 7.0 0.00 0.00 0.00 54 1012.5
20260505030047 84 33 0.0 9.0 0.00 0.00 0.00 53 1012.6
20260505024542 84 69 1.0 7.0 0.00 0.00 0.00 50 1013.0
20260505023044 84 103 3.0 11.0 0.00 0.00 0.00 53 1013.1
20260505021534 84 68 0.0 5.0 0.00 0.00 0.00 53 1013.5
20260505020034 83 165 0.0 8.0 0.00 0.00 0.00 56 1013.6
20260505014525 83 69 1.0 7.0 0.00 0.00 0.00 55 1014.0
20260505013023 82 69 1.0 8.0 0.00 0.00 0.00 56 1014.3
20260505011524 82 146 0.0 4.0 0.00 0.00 0.00 58 1014.4
20260505010011 81 112 0.0 5.0 0.00 0.00 0.00 61 1014.6
20260505004507 81 330 0.0 0.0 0.00 0.00 0.00 62 1014.8
20260505003003 82 109 0.0 0.0 0.00 0.00 0.00 63 1015.1
20260505001628 80 81 0.0 2.0 0.00 0.00 0.00 66 1015.2
20260505000126 79 78 0.0 2.0 0.00 0.00 0.00 68 1015.1
20260504234606 78 170 0.0 0.0 0.00 0.00 0.00 71 1015.4
20260504233050 77 96 0.0 1.0 0.00 0.00 0.00 74 1015.4
20260504231540 74 127 0.0 1.0 0.00 0.00 0.00 77 1015.3
20260504230035 73 130 0.0 4.0 0.00 0.00 0.00 77 1015.3
20260504224530 72 108 0.0 2.0 0.00 0.00 0.00 77 1015.5
20260504223027 71 179 0.0 0.0 0.00 0.00 0.00 64 1015.5
20260504221523 67 221 0.0 0.0 0.00 0.00 0.00 1 1015.5
20260504220018 66 242 0.0 0.0 0.00 0.00 0.00 1 1015.4
20260504214513 64 194 0.0 0.0 0.00 0.00 0.00 1 1015.1
20260504213028 63 179 0.0 0.0 0.00 0.00 0.00 1 1015.1
20260504211511 63 188 0.0 0.0 0.00 0.00 0.00 1 1014.8
20260504210101 62 148 0.0 0.0 0.00 0.00 0.00 1 1014.6